FW6512 Weather Reports


Display with metric or nautical units.
time (UTC)temp
F
wind
direction
speed
MPH
gust
MPH
rain 1hr
in
rain 24hr
in
rain mn
in
humidity
%
barometer
mb
20260507101251 50 212 0.0 1.0 0.00 0.00 0.00 86 1019.5
20260507100744 50 186 0.0 1.0 0.00 0.00 0.00 86 1019.5
20260507100237 50 146 1.0 1.0 0.00 0.00 0.00 86 1019.1
20260507095731 50 191 0.0 1.0 0.00 0.00 0.00 87 1019.1
20260507095224 50 165 0.0 1.0 0.00 0.00 0.00 87 1019.1
20260507094912 50 189 0.0 0.0 0.00 0.00 0.00 88 1019.1
20260507094758 50 143 0.0 1.0 0.00 0.00 0.00 88 1019.1
20260507093704 50 187 0.0 0.0 0.00 0.00 0.00 88 1019.1
20260507093157 50 187 0.0 0.0 0.00 0.00 0.00 88 1019.5
20260507092651 50 192 0.0 0.0 0.00 0.00 0.00 88 1019.1
20260507092409 50 190 0.0 1.0 0.00 0.00 0.00 88 1019.5
20260507091637 50 198 0.0 1.0 0.00 0.00 0.00 89 1019.1
20260507091130 50 192 0.0 1.0 0.00 0.00 0.00 89 1019.1
20260507090624 50 178 0.0 1.0 0.00 0.00 0.00 89 1019.1
20260507090117 50 188 0.0 1.0 0.00 0.00 0.00 89 1018.8
20260507085611 50 199 0.0 1.0 0.00 0.00 0.00 89 1019.5
20260507085326 51 194 0.0 3.0 0.00 0.00 0.00 88 1019.5
20260507084818 51 199 0.0 3.0 0.00 0.00 0.00 88 1019.5
20260507084050 51 200 0.0 4.0 0.00 0.00 0.00 89 1019.5
20260507083544 51 190 0.0 4.0 0.00 0.00 0.00 89 1019.5
20260507083037 51 195 1.0 2.0 0.00 0.00 0.00 89 1019.1
20260507082531 51 196 0.0 2.0 0.00 0.00 0.00 90 1019.1
20260507082517 51 213 1.0 2.0 0.00 0.00 0.00 90 1019.5
20260507081517 51 174 0.0 3.0 0.00 0.00 0.00 90 1019.1
20260507081011 51 236 1.0 3.0 0.00 0.00 0.00 91 1019.1
20260507080504 51 198 0.0 3.0 0.00 0.00 0.00 91 1019.1
20260507080219 51 195 0.0 2.0 0.00 0.00 0.00 92 1019.5
20260507075715 51 203 0.0 1.0 0.00 0.00 0.00 92 1019.1
20260507075204 51 205 0.0 2.0 0.00 0.00 0.00 92 1019.5
20260507074437 51 199 0.0 2.0 0.00 0.00 0.00 92 1019.5
20260507073931 52 202 0.0 1.0 0.00 0.00 0.00 93 1019.5
20260507073423 52 198 0.0 1.0 0.00 0.00 0.00 93 1019.5
20260507072917 52 201 0.0 2.0 0.00 0.00 0.00 93 1019.1
20260507072410 51 199 0.0 4.0 0.00 0.00 0.00 93 1019.1
20260507071903 51 228 1.0 4.0 0.00 0.00 0.00 93 1019.1
20260507071357 52 186 0.0 1.0 0.00 0.00 0.00 94 1019.5
20260507070851 52 185 1.0 1.0 0.00 0.00 0.00 93 1019.5
20260507070344 52 211 0.0 2.0 0.00 0.00 0.00 93 1019.5
20260507065838 52 197 0.0 3.0 0.00 0.00 0.00 93 1019.1
20260507065331 52 202 3.0 3.0 0.00 0.00 0.00 92 1019.5
20260507064823 52 205 0.0 2.0 0.00 0.00 0.00 92 1018.8
20260507064316 52 200 0.0 1.0 0.00 0.00 0.00 92 1019.1
20260507063810 52 200 0.0 2.0 0.00 0.00 0.00 92 1019.1
20260507063303 52 218 0.0 2.0 0.00 0.00 0.00 91 1019.1
20260507062756 52 198 0.0 1.0 0.00 0.00 0.00 92 1019.5
20260507062250 52 213 1.0 3.0 0.00 0.00 0.00 92 1019.1
20260507062006 52 202 0.0 3.0 0.00 0.00 0.00 92 1019.1
20260507061237 52 187 0.0 3.0 0.00 0.00 0.00 92 1019.1
20260507060730 52 232 2.0 3.0 0.00 0.00 0.00 91 1019.1
20260507060223 52 244 2.0 3.0 0.00 0.00 0.00 91 1019.1
20260507055717 53 202 0.0 4.0 0.00 0.00 0.00 90 1019.5
20260507055211 53 212 0.0 4.0 0.00 0.00 0.00 89 1019.1
20260507054704 53 214 0.0 7.0 0.00 0.00 0.00 88 1019.1
20260507054157 53 228 2.0 7.0 0.00 0.00 0.00 87 1019.1
20260507053651 54 222 1.0 6.0 0.00 0.00 0.00 86 1019.1
20260507053144 54 207 1.0 3.0 0.00 0.00 0.00 85 1018.8
20260507052637 54 247 3.0 4.0 0.00 0.00 0.00 85 1019.1
20260507052131 54 196 0.0 4.0 0.00 0.00 0.00 84 1019.1
20260507051623 54 196 0.0 3.0 0.00 0.00 0.00 84 1019.1
20260507051117 54 229 0.0 3.0 0.00 0.00 0.00 84 1019.1
20260507050610 54 210 2.0 3.0 0.00 0.00 0.00 83 1019.1
20260507050103 54 211 0.0 3.0 0.00 0.00 0.00 83 1019.1
20260507045556 55 201 0.0 3.0 0.00 0.00 0.00 83 1019.1
20260507045049 55 217 0.0 3.0 0.00 0.00 0.00 83 1019.1
20260507044542 55 219 1.0 3.0 0.00 0.00 0.00 83 1019.1
20260507044036 55 204 0.0 1.0 0.00 0.00 0.00 83 1018.8
20260507043530 55 203 0.0 3.0 0.00 0.00 0.00 83 1019.1
20260507043258 55 197 0.0 3.0 0.00 0.00 0.00 83 1019.1
20260507043004 55 230 1.0 2.0 0.00 0.00 0.00 82 1018.8
20260507042009 55 199 0.0 3.0 0.00 0.00 0.00 82 1019.1
20260507041503 55 208 1.0 3.0 0.00 0.00 0.00 82 1019.1
20260507040956 55 184 0.0 3.0 0.00 0.00 0.00 82 1019.1
20260507040712 55 222 2.0 3.0 0.00 0.00 0.00 82 1018.8
20260507035942 55 192 1.0 3.0 0.00 0.00 0.00 82 1019.1
20260507035436 55 221 2.0 4.0 0.00 0.00 0.00 82 1019.1
20260507034929 55 219 2.0 4.0 0.00 0.00 0.00 82 1018.8
20260507034423 55 238 2.0 3.0 0.00 0.00 0.00 82 1018.8
20260507033916 55 205 2.0 7.0 0.00 0.00 0.00 82 1019.1
20260507033409 55 233 2.0 7.0 0.00 0.00 0.00 82 1018.8
20260507032905 55 205 2.0 2.0 0.00 0.00 0.00 82 1018.8
20260507032620 55 253 2.0 2.0 0.00 0.00 0.00 81 1018.8
20260507031850 55 204 0.0 3.0 0.00 0.00 0.00 81 1018.4
20260507031342 56 196 0.0 3.0 0.00 0.00 0.00 81 1018.4
20260507030836 56 209 3.0 4.0 0.00 0.00 0.00 80 1018.4
20260507030330 56 235 2.0 4.0 0.00 0.00 0.00 80 1018.4
20260507025821 56 195 1.0 4.0 0.00 0.00 0.00 80 1018.4
20260507025315 56 195 2.0 4.0 0.00 0.00 0.00 80 1018.4
20260507025034 56 236 3.0 4.0 0.00 0.00 0.00 79 1018.4
20260507024302 56 203 1.0 6.0 0.00 0.00 0.00 79 1018.4
20260507023755 56 245 2.0 7.0 0.00 0.00 0.00 79 1018.4
20260507023248 56 219 1.0 7.0 0.00 0.00 0.00 79 1018.4
20260507022741 57 200 0.0 4.0 0.00 0.00 0.00 79 1018.4
20260507022235 57 209 1.0 4.0 0.00 0.00 0.00 78 1018.1
20260507021728 57 191 0.0 4.0 0.00 0.00 0.00 79 1018.1
20260507021447 57 213 0.0 4.0 0.00 0.00 0.00 78 1018.4
20260507020716 57 196 0.0 4.0 0.00 0.00 0.00 78 1018.1
20260507020208 57 191 0.0 4.0 0.00 0.00 0.00 78 1018.4
20260507015701 57 200 0.0 4.0 0.00 0.00 0.00 77 1018.4
20260507015155 58 195 0.0 6.0 0.00 0.00 0.00 78 1018.1
20260507014648 57 198 0.0 6.0 0.00 0.00 0.00 78 1018.4
20260507014142 58 228 0.0 4.0 0.00 0.00 0.00 78 1018.4
20260507013635 58 209 0.0 3.0 0.00 0.00 0.00 77 1018.4
20260507013128 59 218 1.0 3.0 0.00 0.00 0.00 76 1018.1
20260507012621 59 237 1.0 4.0 0.00 0.00 0.00 75 1018.1
20260507012115 59 200 0.0 7.0 0.00 0.00 0.00 75 1018.1
20260507011608 59 193 3.0 7.0 0.00 0.00 0.00 76 1018.1
20260507011321 58 195 0.0 4.0 0.00 0.00 0.00 76 1018.1
20260507010555 58 195 0.0 4.0 0.00 0.00 0.00 76 1018.1
20260507010050 59 236 0.0 3.0 0.00 0.00 0.00 76 1018.4
20260507005541 59 202 0.0 2.0 0.00 0.00 0.00 75 1018.4
20260507005034 59 242 0.0 8.0 0.00 0.00 0.00 76 1018.4
20260507004528 59 208 3.0 8.0 0.00 0.00 0.00 76 1018.1
20260507004021 59 192 4.0 6.0 0.00 0.00 0.00 75 1018.1
20260507003516 59 220 1.0 6.0 0.00 0.00 0.00 75 1018.1
20260507003008 59 198 0.0 3.0 0.00 0.00 0.00 75 1018.1
20260507002502 59 225 0.0 4.0 0.00 0.00 0.00 75 1018.4
20260507001955 59 201 0.0 6.0 0.00 0.00 0.00 75 1018.1
20260507001448 59 245 1.0 6.0 0.00 0.00 0.00 74 1018.4
20260507000941 59 186 0.0 6.0 0.00 0.00 0.00 74 1018.1
20260507000435 59 230 3.0 6.0 0.00 0.00 0.00 74 1018.4
20260506235928 60 220 2.0 4.0 0.00 0.00 0.00 72 1018.4
20260506235421 60 211 1.0 3.0 0.00 0.00 0.00 72 1018.1
20260506234915 60 204 0.0 6.0 0.00 0.00 0.00 72 1018.4
20260506234408 60 188 3.0 4.0 0.00 0.00 0.00 71 1018.1
20260506233901 60 198 1.0 3.0 0.00 0.00 0.00 71 1018.4
20260506233355 60 175 2.0 6.0 0.00 0.00 0.00 72 1018.4
20260506232848 60 215 1.0 6.0 0.00 0.00 0.00 71 1018.4
20260506232341 61 160 1.0 3.0 0.00 0.00 0.00 70 1018.4
20260506231835 61 206 0.0 4.0 0.00 0.00 0.00 70 1018.1
20260506231327 61 203 1.0 6.0 0.00 0.00 0.00 72 1018.1
20260506230821 60 245 2.0 9.0 0.00 0.00 0.00 71 1018.1
20260506230314 61 219 1.0 9.0 0.00 0.00 0.00 72 1018.4
20260506225807 61 236 3.0 6.0 0.00 0.00 0.00 71 1018.1
20260506225300 60 256 1.0 8.0 0.00 0.00 0.00 72 1018.4
20260506224754 60 247 1.0 7.0 0.00 0.00 0.00 72 1018.4
20260506224248 60 193 2.0 7.0 0.00 0.00 0.00 73 1018.8
20260506223741 60 208 1.0 4.0 0.00 0.00 0.00 73 1018.4
20260506223234 60 196 1.0 4.0 0.00 0.00 0.00 74 1018.4
20260506222727 60 202 2.0 9.0 0.00 0.00 0.00 74 1018.4
20260506222448 59 257 1.0 9.0 0.00 0.00 0.00 74 1018.4
20260506221935 59 217 1.0 4.0 0.00 0.00 0.00 74 1018.8
20260506221208 59 198 0.0 3.0 0.00 0.00 0.00 74 1018.4
20260506220701 58 226 1.0 6.0 0.00 0.00 0.00 75 1018.8
20260506220154 58 194 0.0 6.0 0.00 0.00 0.00 76 1018.4
20260506215647 58 129 2.0 4.0 0.00 0.00 0.00 75 1018.8
20260506215141 58 192 2.0 3.0 0.00 0.00 0.00 76 1018.8
20260506214635 58 216 0.0 3.0 0.00 0.00 0.00 76 1018.8
20260506214128 58 249 1.0 4.0 0.00 0.00 0.00 76 1018.8
20260506213621 58 200 0.0 4.0 0.00 0.00 0.00 77 1018.8
20260506213343 58 209 0.0 7.0 0.00 0.00 0.00 75 1018.4
20260506212607 58 202 0.0 7.0 0.00 0.00 0.00 75 1018.8
20260506212319 58 194 4.0 6.0 0.00 0.00 0.00 75 1018.4
20260506211554 58 206 0.0 3.0 0.00 0.00 0.00 77 1018.8
20260506211048 58 204 0.0 4.0 0.00 0.00 0.00 76 1018.8
20260506210541 59 256 2.0 4.0 0.00 0.00 0.00 75 1018.4
20260506210034 59 224 1.0 4.0 0.00 0.00 0.00 75 1018.8
20260506205526 59 197 0.0 4.0 0.00 0.00 0.00 76 1018.8
20260506205246 58 229 2.0 4.0 0.00 0.00 0.00 75 1018.8
20260506204513 59 245 2.0 3.0 0.00 0.00 0.00 75 1018.8
20260506204006 59 198 1.0 2.0 0.00 0.00 0.00 75 1018.4
20260506203500 59 201 0.0 4.0 0.00 0.00 0.00 75 1018.4
20260506202953 59 190 2.0 4.0 0.00 0.00 0.00 76 1018.8
20260506202446 59 223 1.0 3.0 0.00 0.00 0.00 76 1018.4
20260506201940 59 207 0.0 3.0 0.00 0.00 0.00 76 1018.4
20260506201654 58 188 1.0 4.0 0.00 0.00 0.00 77 1018.4
20260506201146 58 204 1.0 6.0 0.00 0.00 0.00 78 1018.4
20260506200420 58 231 2.0 6.0 0.00 0.00 0.00 78 1018.4
20260506195913 57 187 1.0 6.0 0.00 0.00 0.00 80 1018.4
20260506195406 57 203 2.0 6.0 0.00 0.00 0.00 80 1018.4
20260506194900 57 245 1.0 7.0 0.00 0.00 0.00 80 1018.4
20260506194354 57 246 2.0 7.0 0.00 0.00 0.00 81 1018.4
20260506193846 58 223 0.0 3.0 0.00 0.00 0.00 81 1018.4
20260506193340 58 202 0.0 2.0 0.00 0.00 0.00 81 1018.4
20260506192833 58 211 1.0 7.0 0.00 0.00 0.00 81 1018.4
20260506192326 57 229 0.0 7.0 0.00 0.00 0.00 82 1018.1
20260506191821 57 233 0.0 7.0 0.00 0.00 0.00 82 1018.1
20260506191313 57 203 3.0 6.0 0.00 0.00 0.00 82 1018.4
20260506191026 57 192 1.0 2.0 0.00 0.00 0.00 82 1018.4
20260506190259 57 209 0.0 1.0 0.00 0.00 0.00 82 1018.1
20260506190016 57 195 0.0 3.0 0.00 0.00 0.00 82 1018.1
20260506185247 57 194 0.0 3.0 0.00 0.00 0.00 82 1018.1
20260506185005 57 214 1.0 3.0 0.00 0.00 0.00 83 1018.4
20260506184456 57 206 0.0 3.0 0.00 0.00 0.00 84 1018.4
20260506183726 57 202 0.0 2.0 0.00 0.00 0.00 83 1018.4
20260506183219 57 201 0.0 4.0 0.00 0.00 0.00 83 1018.4
20260506182714 56 201 0.0 4.0 0.00 0.00 0.00 83 1018.1
20260506182207 56 250 1.0 4.0 0.00 0.00 0.00 83 1017.8
20260506181659 56 211 4.0 4.0 0.00 0.00 0.00 83 1018.1
20260506181153 56 331 1.0 4.0 0.00 0.00 0.00 84 1018.1
20260506180646 56 265 0.0 4.0 0.00 0.00 0.00 84 1018.1
20260506180139 56 219 0.0 4.0 0.00 0.00 0.00 84 1018.1
20260506175633 56 194 0.0 2.0 0.00 0.00 0.00 84 1018.1
20260506175126 56 204 0.0 2.0 0.00 0.00 0.00 85 1018.1
20260506174619 56 241 0.0 3.0 0.00 0.00 0.00 85 1018.1
20260506174331 55 178 0.0 4.0 0.00 0.00 0.00 85 1018.1
20260506173606 55 262 2.0 4.0 0.00 0.00 0.00 85 1018.1
20260506173319 55 200 0.0 6.0 0.00 0.00 0.00 86 1018.4
20260506172552 55 221 1.0 6.0 0.00 0.00 0.00 86 1018.4
20260506172046 55 223 2.0 6.0 0.00 0.00 0.00 86 1018.4
20260506171539 55 190 2.0 4.0 0.00 0.00 0.00 86 1018.4
20260506171033 55 224 1.0 3.0 0.00 0.00 0.00 87 1018.1
20260506170526 55 194 0.0 4.0 0.00 0.00 0.00 87 1018.1
20260506170241 54 210 2.0 6.0 0.00 0.00 0.00 87 1018.1
20260506165732 55 205 1.0 6.0 0.00 0.00 0.00 87 1018.1
20260506165005 55 296 4.0 6.0 0.00 0.00 0.00 86 1018.1
20260506164459 54 202 0.0 7.0 0.00 0.00 0.00 87 1017.8
20260506163952 55 195 0.0 7.0 0.00 0.00 0.00 86 1018.1
20260506163445 55 193 1.0 3.0 0.00 0.00 0.00 86 1017.8
20260506162939 55 182 1.0 7.0 0.00 0.00 0.00 86 1017.8
20260506162432 55 194 0.0 7.0 0.00 0.00 0.00 87 1017.8
20260506162146 54 270 1.0 4.0 0.00 0.00 0.00 88 1017.4
20260506161418 54 180 1.0 4.0 0.00 0.00 0.00 88 1017.8
20260506160911 54 196 1.0 3.0 0.00 0.00 0.00 89 1017.8
20260506160404 53 224 0.0 4.0 0.00 0.00 0.00 90 1018.1
20260506155858 53 223 1.0 4.0 0.00 0.00 0.00 90 1017.8
20260506155352 53 227 1.0 3.0 0.00 0.00 0.00 90 1018.1
20260506155331 54 244 0.0 4.0 0.00 0.00 0.00 90 1017.8
20260506154338 53 230 0.0 4.0 0.00 0.00 0.00 90 1018.1
20260506153832 53 201 0.0 4.0 0.00 0.00 0.00 90 1018.1
20260506153325 53 189 0.0 4.0 0.00 0.00 0.00 90 1017.8
20260506152820 53 138 1.0 3.0 0.00 0.00 0.00 90 1017.4
20260506152535 53 180 0.0 3.0 0.00 0.00 0.00 91 1017.8
20260506152028 53 179 0.0 3.0 0.00 0.00 0.00 91 1017.8
20260506151258 53 190 1.0 3.0 0.00 0.00 0.00 91 1017.8
20260506150751 53 223 0.0 2.0 0.00 0.00 0.00 91 1017.8
20260506150245 53 224 1.0 2.0 0.00 0.00 0.00 91 1017.8
20260506145737 53 195 0.0 2.0 0.00 0.00 0.00 91 1018.1
20260506145452 53 197 0.0 3.0 0.00 0.00 0.00 91 1017.8
20260506144724 53 178 0.0 3.0 0.00 0.00 0.00 91 1017.8
20260506144217 53 213 1.0 3.0 0.00 0.00 0.00 91 1017.8
20260506143710 53 223 0.0 4.0 0.00 0.00 0.00 91 1017.8
20260506143204 53 240 1.0 3.0 0.00 0.00 0.00 91 1017.4
20260506142657 53 197 0.0 3.0 0.00 0.00 0.00 91 1017.1
20260506142151 53 210 3.0 3.0 0.00 0.00 0.00 91 1017.8
20260506141644 53 184 0.0 1.0 0.00 0.00 0.00 91 1017.4
20260506140631 53 220 0.0 1.0 0.00 0.00 0.00 91 1017.8
20260506140124 53 209 0.0 2.0 0.00 0.00 0.00 91 1017.8
20260506135617 53 195 0.0 3.0 0.00 0.00 0.00 91 1017.4
20260506135111 53 191 0.0 3.0 0.00 0.00 0.00 91 1017.4
20260506134604 53 213 0.0 3.0 0.00 0.00 0.00 91 1017.4
20260506134057 53 213 2.0 3.0 0.00 0.00 0.00 91 1017.4
20260506133550 53 224 1.0 4.0 0.00 0.00 0.00 91 1017.4
20260506133044 53 213 1.0 4.0 0.00 0.00 0.00 91 1017.4
20260506132759 53 197 2.0 4.0 0.00 0.00 0.00 91 1017.4
20260506132030 53 230 3.0 4.0 0.00 0.00 0.00 91 1017.1
20260506131524 53 189 0.0 4.0 0.00 0.00 0.00 91 1017.1
20260506131017 53 208 0.0 3.0 0.00 0.00 0.00 92 1017.1
20260506130732 53 223 2.0 2.0 0.00 0.00 0.00 93 1016.7
20260506130004 53 201 0.0 3.0 0.00 0.00 0.00 93 1017.1
20260506125456 53 194 0.0 3.0 0.00 0.00 0.00 94 1017.1
20260506125211 53 192 0.0 1.0 0.00 0.00 0.00 94 1017.1
20260506124704 53 209 0.0 1.0 0.00 0.00 0.00 94 1016.7
20260506123937 53 195 0.0 1.0 0.00 0.00 0.00 95 1016.7
20260506123656 53 212 0.0 1.0 0.00 0.00 0.00 95 1016.7
20260506122924 53 196 0.0 0.0 0.00 0.00 0.00 95 1016.7
20260506122417 53 207 0.0 0.0 0.00 0.00 0.00 95 1017.1
20260506121910 53 196 0.0 0.0 0.00 0.00 0.00 95 1017.1
20260506121404 53 199 0.0 0.0 0.00 0.00 0.00 95 1017.1
20260506120857 53 196 0.0 1.0 0.00 0.00 0.00 95 1016.7
20260506120350 53 191 0.0 1.0 0.00 0.00 0.00 95 1016.7
20260506115843 53 194 0.0 1.0 0.00 0.00 0.00 95 1016.7
20260506115336 53 191 0.0 1.0 0.00 0.00 0.00 95 1016.7
20260506114830 53 172 0.0 1.0 0.00 0.00 0.00 95 1016.4
20260506114323 53 187 0.0 1.0 0.00 0.00 0.00 94 1016.7
20260506114043 53 183 0.0 1.0 0.00 0.00 0.00 93 1016.7
20260506113309 53 194 0.0 2.0 0.00 0.00 0.00 93 1016.7
20260506113023 53 206 1.0 2.0 0.00 0.00 0.00 92 1016.7
20260506112736 53 192 0.0 1.0 0.00 0.00 0.00 91 1016.7
20260506111749 53 195 0.0 1.0 0.00 0.00 0.00 91 1016.7
20260506111242 53 178 0.0 2.0 0.00 0.00 0.00 91 1016.7
20260506110736 54 201 0.0 2.0 0.00 0.00 0.00 90 1016.7
20260506110229 54 192 0.0 1.0 0.00 0.00 0.00 90 1016.4
20260506105723 54 199 0.0 1.0 0.00 0.00 0.00 90 1016.7
20260506105216 54 198 0.0 1.0 0.00 0.00 0.00 90 1016.4
20260506104709 54 205 1.0 1.0 0.00 0.00 0.00 89 1016.7
20260506104425 54 195 0.0 0.0 0.00 0.00 0.00 90 1016.4
20260506103918 54 191 0.0 0.0 0.00 0.00 0.00 90 1016.4
20260506103149 54 205 0.0 0.0 0.00 0.00 0.00 90 1016.4
20260506102643 54 188 0.0 0.0 0.00 0.00 0.00 90 1016.1
20260506102136 54 201 0.0 0.0 0.00 0.00 0.00 90 1016.1
20260506101629 54 198 0.0 0.0 0.00 0.00 0.00 90 1016.1